When you browse on this site, cookies collect data to enhance your experience and personalize the content and advertising you see.
Visit our Privacy Policy to learn more. By continuing to use the site, you agree to this use of cookies and data.
  • In Österreich
  • Länderverzeichnis
  • Für 7 Tage
  • Wassertemperatur
  • Satellitenkarten
  • Wetterkarte
  • News
  • Widgets
  • user-avatar
    Anmelden

    Stündliche Wetter Belize

    Heute, 20 April, Samstag

    Zeit Temperatur Niederschläge Wind Luftdruck Luftfeuchtigkeit
    00:00 +24°C° 0 mm 7 m/S 762 mmHg 84%
    01:00 +24°C° 0 mm 6 m/S 762 mmHg 83%
    02:00 +23°C° 0 mm 6 m/S 762 mmHg 82%
    03:00 +23°C° 0 mm 6 m/S 762 mmHg 80%
    04:00 +22°C° 0 mm 5 m/S 762 mmHg 81%
    05:00 +22°C° 0 mm 5 m/S 763 mmHg 81%
    06:00 +21°C° 0 mm 5 m/S 763 mmHg 81%
    07:00 +23°C° 0 mm 5 m/S 764 mmHg 72%
    08:00 +25°C° 0 mm 5 m/S 764 mmHg 63%
    09:00 +27°C° 0 mm 5 m/S 765 mmHg 55%
    10:00 +29°C° 0 mm 4 m/S 764 mmHg 48%
    11:00 +30°C° 0 mm 4 m/S 764 mmHg 41%
    12:00 +33°C° 0 mm 3 m/S 764 mmHg 34%
    13:00 +33°C° 0 mm 3 m/S 763 mmHg 34%
    14:00 +34°C° 0 mm 3 m/S 762 mmHg 34%
    15:00 +34°C° 0 mm 3 m/S 761 mmHg 33%
    16:00 +32°C° 0 mm 4 m/S 761 mmHg 42%
    17:00 +29°C° 0 mm 4 m/S 761 mmHg 50%
    18:00 +27°C° 0 mm 4 m/S 761 mmHg 58%
    19:00 +27°C° 0 mm 4 m/S 761 mmHg 62%
    20:00 +26°C° 0 mm 4 m/S 762 mmHg 67%
    21:00 +26°C° 0 mm 4 m/S 762 mmHg 71%
    22:00 +26°C° 0 mm 4 m/S 763 mmHg 72%
    23:00 +25°C° 0 mm 3 m/S 763 mmHg 74%

    Morgen, 21 April, Sonntag

    Zeit Temperatur Niederschläge Wind Luftdruck Luftfeuchtigkeit
    00:00 +25°C° 0 mm 3 m/S 763 mmHg 75%
    01:00 +25°C° 0.1 mm 2 m/S 763 mmHg 78%
    02:00 +25°C° 0.1 mm 2 m/S 762 mmHg 81%
    03:00 +24°C° 0.1 mm 2 m/S 762 mmHg 84%
    04:00 +24°C° 0.2 mm 2 m/S 762 mmHg 84%
    05:00 +24°C° 0.2 mm 2 m/S 762 mmHg 85%
    06:00 +24°C° 0.2 mm 2 m/S 763 mmHg 86%
    07:00 +26°C° 0.2 mm 3 m/S 763 mmHg 79%
    08:00 +27°C° 0.2 mm 3 m/S 763 mmHg 73%
    09:00 +28°C° 0.2 mm 3 m/S 764 mmHg 67%
    10:00 +29°C° 0.1 mm 4 m/S 764 mmHg 63%
    11:00 +30°C° 0.1 mm 4 m/S 763 mmHg 59%
    12:00 +32°C° 0.1 mm 4 m/S 763 mmHg 56%
    13:00 +32°C° 0 mm 4 m/S 763 mmHg 55%
    14:00 +32°C° 0 mm 4 m/S 762 mmHg 55%
    15:00 +32°C° 0 mm 4 m/S 761 mmHg 54%
    16:00 +29°C° 0 mm 4 m/S 761 mmHg 58%
    17:00 +28°C° 0 mm 4 m/S 761 mmHg 62%
    18:00 +27°C° 0 mm 4 m/S 761 mmHg 66%
    19:00 +27°C° 0 mm 4 m/S 762 mmHg 69%
    20:00 +26°C° 0 mm 4 m/S 762 mmHg 73%
    21:00 +26°C° 0 mm 4 m/S 763 mmHg 76%
    22:00 +26°C° 0 mm 4 m/S 763 mmHg 77%
    23:00 +26°C° 0 mm 4 m/S 762 mmHg 79%

    übermorgen, 22 April, Montag

    Zeit Temperatur Niederschläge Wind Luftdruck Luftfeuchtigkeit
    00:00 +26°C° 0 mm 3 m/S 762 mmHg 80%
    01:00 +26°C° 0.1 mm 4 m/S 762 mmHg 82%
    02:00 +26°C° 0.1 mm 4 m/S 761 mmHg 84%
    03:00 +26°C° 0.1 mm 4 m/S 760 mmHg 86%
    04:00 +26°C° 0.4 mm 4 m/S 761 mmHg 87%
    05:00 +26°C° 0.4 mm 4 m/S 761 mmHg 88%
    06:00 +26°C° 0.4 mm 4 m/S 761 mmHg 89%
    07:00 +27°C° 0.7 mm 4 m/S 761 mmHg 85%
    08:00 +28°C° 0.7 mm 4 m/S 762 mmHg 82%
    09:00 +29°C° 0.7 mm 5 m/S 762 mmHg 78%
    10:00 +28°C° 0.7 mm 4 m/S 762 mmHg 80%
    11:00 +28°C° 0.7 mm 4 m/S 762 mmHg 82%
    12:00 +28°C° 0.7 mm 4 m/S 761 mmHg 83%
    13:00 +29°C° 0.2 mm 4 m/S 761 mmHg 78%
    14:00 +30°C° 0.2 mm 4 m/S 760 mmHg 73%
    15:00 +30°C° 0.2 mm 4 m/S 759 mmHg 68%
    16:00 +30°C° 0.1 mm 4 m/S 759 mmHg 72%
    17:00 +29°C° 0.1 mm 5 m/S 759 mmHg 76%
    18:00 +28°C° 0.1 mm 5 m/S 760 mmHg 79%
    19:00 +28°C° 0.1 mm 5 m/S 760 mmHg 81%
    20:00 +27°C° 0.1 mm 5 m/S 760 mmHg 83%
    21:00 +27°C° 0.1 mm 5 m/S 761 mmHg 86%
    22:00 +27°C° 0.2 mm 5 m/S 761 mmHg 86%
    23:00 +27°C° 0.2 mm 5 m/S 761 mmHg 86%

    23 April, Dienstag

    Zeit Temperatur Niederschläge Wind Luftdruck Luftfeuchtigkeit
    00:00 +27°C° 0.2 mm 5 m/S 760 mmHg 87%
    01:00 +27°C° 0.1 mm 4 m/S 760 mmHg 87%
    02:00 +27°C° 0.1 mm 4 m/S 759 mmHg 87%
    03:00 +27°C° 0.1 mm 4 m/S 759 mmHg 87%
    04:00 +27°C° 0.1 mm 4 m/S 759 mmHg 87%
    05:00 +27°C° 0.1 mm 4 m/S 759 mmHg 87%
    06:00 +27°C° 0.1 mm 4 m/S 759 mmHg 87%
    07:00 +28°C° 0.1 mm 4 m/S 760 mmHg 80%
    08:00 +29°C° 0.1 mm 4 m/S 760 mmHg 73%
    09:00 +32°C° 0.1 mm 4 m/S 761 mmHg 66%
    10:00 +32°C° 0.2 mm 5 m/S 761 mmHg 65%
    11:00 +32°C° 0.2 mm 5 m/S 760 mmHg 63%
    12:00 +33°C° 0.2 mm 5 m/S 760 mmHg 62%
    13:00 +33°C° 0.1 mm 5 m/S 759 mmHg 62%
    14:00 +32°C° 0.1 mm 5 m/S 759 mmHg 63%
    15:00 +32°C° 0.1 mm 5 m/S 758 mmHg 63%
    16:00 +30°C° 0 mm 5 m/S 758 mmHg 66%
    17:00 +29°C° 0 mm 5 m/S 758 mmHg 70%
    18:00 +29°C° 0 mm 5 m/S 759 mmHg 73%
    19:00 +28°C° 0 mm 5 m/S 759 mmHg 75%
    20:00 +28°C° 0 mm 5 m/S 759 mmHg 76%
    21:00 +27°C° 0 mm 5 m/S 760 mmHg 77%
    22:00 +27°C° 0.1 mm 5 m/S 760 mmHg 80%
    23:00 +27°C° 0.1 mm 5 m/S 759 mmHg 82%

    24 April, Mittwoch

    Zeit Temperatur Niederschläge Wind Luftdruck Luftfeuchtigkeit
    00:00 +27°C° 0.1 mm 5 m/S 759 mmHg 85%
    01:00 +27°C° 0.2 mm 5 m/S 759 mmHg 86%
    02:00 +26°C° 0.2 mm 5 m/S 758 mmHg 88%
    03:00 +26°C° 0.2 mm 5 m/S 758 mmHg 89%
    04:00 +26°C° 0.3 mm 5 m/S 758 mmHg 89%
    05:00 +26°C° 0.3 mm 5 m/S 759 mmHg 89%
    06:00 +26°C° 0.3 mm 5 m/S 759 mmHg 90%
    07:00 +27°C° 0.2 mm 5 m/S 759 mmHg 84%
    08:00 +29°C° 0.2 mm 5 m/S 760 mmHg 79%
    09:00 +30°C° 0.2 mm 5 m/S 760 mmHg 74%
    10:00 +32°C° 0.2 mm 5 m/S 760 mmHg 70%
    11:00 +32°C° 0.2 mm 5 m/S 759 mmHg 66%
    12:00 +33°C° 0.2 mm 5 m/S 759 mmHg 62%
    13:00 +33°C° 0.1 mm 5 m/S 758 mmHg 63%
    14:00 +33°C° 0.1 mm 5 m/S 758 mmHg 63%
    15:00 +33°C° 0.1 mm 5 m/S 757 mmHg 64%
    16:00 +32°C° 0 mm 5 m/S 757 mmHg 69%
    17:00 +30°C° 0 mm 5 m/S 757 mmHg 74%
    18:00 +29°C° 0 mm 5 m/S 757 mmHg 79%
    19:00 +28°C° 0 mm 5 m/S 758 mmHg 80%
    20:00 +28°C° 0 mm 5 m/S 758 mmHg 82%
    21:00 +28°C° 0 mm 5 m/S 759 mmHg 84%
    22:00 +27°C° 0 mm 5 m/S 758 mmHg 85%
    23:00 +27°C° 0 mm 5 m/S 758 mmHg 86%

    25 April, Donnerstag

    Zeit Temperatur Niederschläge Wind Luftdruck Luftfeuchtigkeit
    00:00 +27°C° 0 mm 5 m/S 758 mmHg 87%
    01:00 +27°C° 0.1 mm 5 m/S 757 mmHg 87%
    02:00 +27°C° 0.1 mm 5 m/S 757 mmHg 87%
    03:00 +27°C° 0.1 mm 5 m/S 757 mmHg 87%
    04:00 +27°C° 0.1 mm 5 m/S 757 mmHg 87%
    05:00 +27°C° 0.1 mm 5 m/S 757 mmHg 87%
    06:00 +27°C° 0.1 mm 5 m/S 758 mmHg 87%
    07:00 +28°C° 0.1 mm 5 m/S 758 mmHg 81%
    08:00 +30°C° 0.1 mm 5 m/S 758 mmHg 76%
    09:00 +32°C° 0.1 mm 5 m/S 759 mmHg 71%
    10:00 +32°C° 0.1 mm 5 m/S 758 mmHg 69%
    11:00 +33°C° 0.1 mm 5 m/S 758 mmHg 68%
    12:00 +33°C° 0.1 mm 5 m/S 757 mmHg 66%
    13:00 +33°C° 0 mm 5 m/S 757 mmHg 66%
    14:00 +34°C° 0 mm 5 m/S 756 mmHg 65%
    15:00 +34°C° 0 mm 5 m/S 756 mmHg 65%
    16:00 +33°C° 0 mm 4 m/S 756 mmHg 70%
    17:00 +30°C° 0 mm 4 m/S 756 mmHg 75%
    18:00 +29°C° 0 mm 4 m/S 757 mmHg 79%
    19:00 +29°C° 0 mm 4 m/S 757 mmHg 80%
    20:00 +28°C° 0 mm 4 m/S 757 mmHg 81%
    21:00 +28°C° 0 mm 4 m/S 758 mmHg 82%
    22:00 +28°C° 0 mm 4 m/S 758 mmHg 83%
    23:00 +28°C° 0 mm 4 m/S 758 mmHg 84%
    Mehr zeigen